Location: Unspecified
(0.0000°N, 0.0000°E)
Time: 00:59:27
(UTC+01:00)

Tiros 1 despin weight - All Passes

Search period start: 25 March 2017 00:00
Search period end: 04 April 2017 01:00
Orbit: 596 x 644 km, 48.2° (Epoch: 23 March)

Date Brightness Start Highest point End Pass type
(mag) Time Alt. Az. Time Alt. Az. Time Alt. Az.
25 Mar - 00:22:00 10° S 00:25:28 21° SE 00:28:54 10° E night (unlit)
25 Mar - 02:02:59 10° WSW 02:06:54 28° NW 02:10:46 10° N night (unlit)
25 Mar - 12:29:42 10° NNW 12:33:46 33° NE 12:37:53 10° ESE daylight
25 Mar - 14:12:06 10° W 14:15:12 18° SW 14:18:19 10° S daylight
26 Mar - 00:37:59 10° SSW 00:42:31 57° SE 00:46:57 10° NE night (unlit)
26 Mar - 03:23:04 10° WNW 03:23:57 10° NW 03:24:50 10° NW night (unlit)
26 Mar - 13:46:14 10° NW 13:50:44 85° SW 13:55:19 10° SE daylight
27 Mar - 00:16:03 10° SSE 00:18:00 12° SE 00:19:56 10° ESE night (unlit)
27 Mar - 01:55:03 10° SW 01:59:30 49° NW 02:03:52 10° NNE night (unlit)
27 Mar - 12:23:06 10° N 12:26:21 19° NE 12:29:37 10° E daylight
27 Mar - 14:03:48 10° WNW 14:07:44 30° SW 14:11:45 10° S daylight
28 Mar - 00:30:56 10° SSW 00:35:05 32° SE 00:39:10 10° ENE night (unlit)
28 Mar - 02:13:19 10° W 02:16:30 18° NW 02:19:39 10° N night (unlit)
28 Mar - 12:38:59 10° NNW 12:43:20 53° NE 12:47:46 10° SE daylight
28 Mar - 14:23:23 10° WSW 14:24:50 11° SW 14:26:17 10° SSW daylight
29 Mar - 00:47:26 10° SW 00:52:05 89° WNW 00:56:38 10° NE night (unlit)
29 Mar - 11:17:34 10° NNE 11:18:53 11° NE 11:20:13 10° ENE daylight
29 Mar - 12:55:58 10° NW 13:00:19 52° SW 13:04:45 10° SSE daylight
29 Mar - 23:24:16 10° S 23:27:37 19° SE 23:30:56 10° E night (unlit)
30 Mar - 01:04:58 10° WSW 01:09:04 31° NW 01:13:06 10° NNE night (unlit)
30 Mar - 11:32:02 10° N 11:35:55 30° NE 11:39:53 10° ESE daylight
30 Mar - 13:14:07 10° W 13:17:21 19° SW 13:20:37 10° S daylight
30 Mar - 23:40:08 10° SSW 23:44:40 51° SE 23:49:06 10° NE night (unlit)
31 Mar - 01:24:22 10° WNW 01:26:05 12° NW 01:27:49 10° NNW night (unlit)
31 Mar - 11:48:27 10° NW 11:52:54 87° NE 11:57:26 10° SE daylight
31 Mar - 22:18:34 10° SSE 22:20:07 11° SE 22:21:40 10° ESE night (unlit)
31 Mar - 23:57:05 10° SW 00:01:39 55° NW 00:06:07 10° NNE night (unlit)
01 Apr - 10:25:32 10° N 10:28:30 17° NE 10:31:29 10° E daylight
01 Apr - 12:05:54 10° WNW 12:09:54 32° SW 12:13:58 10° SSE daylight
01 Apr - 22:33:07 10° S 22:37:12 30° SE 22:41:14 10° ENE night (unlit)
02 Apr - 00:15:11 10° W 00:18:38 20° NW 00:22:03 10° N night (unlit)
02 Apr - 10:41:15 10° NNW 10:45:30 47° NE 10:49:50 10° SE daylight
02 Apr - 12:25:08 10° WSW 12:26:59 12° SW 12:28:49 10° SSW daylight
02 Apr - 22:49:32 10° SW 22:54:13 83° SE 22:58:49 10° NE night (unlit)
03 Apr - 10:58:07 10° NW 11:02:29 58° SW 11:06:54 10° SSE daylight
03 Apr - 21:26:33 10° S 21:29:44 18° SE 21:32:53 10° E visible
03 Apr - 23:06:57 10° WSW 23:11:11 35° NW 23:15:23 10° NNE night (unlit)
